| time (UTC) | temp F | wind direction | speed knots | gust knots | rain 1hr in | rain 24hr in | rain mn in | humidity % | barometer mb |
| 20260507221547 | 60 | 0 | 1.7 | 5.2 | 0.00 | 0.04 | 0.00 | 34 | 1005.7 |
| 20260507220055 | 60 | 221 | 0.9 | 6.1 | 0.00 | 0.04 | 0.00 | 32 | 1005.6 |
| 20260507214554 | 61 | 338 | 2.6 | 7.0 | 0.00 | 0.09 | 0.00 | 34 | 1005.5 |
| 20260507213052 | 61 | 0 | 0.9 | 7.0 | 0.00 | 0.09 | 0.00 | 32 | 1005.5 |
| 20260507211552 | 62 | 350 | 2.6 | 9.6 | 0.00 | 0.09 | 0.00 | 34 | 1005.5 |
| 20260507210049 | 62 | 302 | 0.0 | 5.2 | 0.00 | 0.09 | 0.00 | 33 | 1005.5 |
| 20260507204551 | 63 | 330 | 1.7 | 7.8 | 0.00 | 0.14 | 0.00 | 34 | 1005.3 |
| 20260507203047 | 63 | 186 | 0.9 | 7.0 | 0.00 | 0.14 | 0.00 | 32 | 1005.3 |
| 20260507201546 | 63 | 252 | 0.9 | 9.6 | 0.00 | 0.14 | 0.00 | 32 | 1005.3 |
| 20260507200046 | 63 | 0 | 0.0 | 6.1 | 0.00 | 0.14 | 0.00 | 33 | 1005.3 |
| 20260507194553 | 64 | 0 | 0.9 | 13.0 | 0.00 | 0.17 | 0.00 | 31 | 1005.5 |
| 20260507193049 | 66 | 352 | 1.7 | 9.6 | 0.00 | 0.17 | 0.00 | 31 | 1005.5 |
| 20260507191551 | 65 | 206 | 1.7 | 9.6 | 0.00 | 0.17 | 0.00 | 33 | 1005.7 |
| 20260507190047 | 65 | 64 | 2.6 | 16.5 | 0.00 | 0.17 | 0.00 | 33 | 1006.0 |
| 20260507184550 | 64 | 308 | 3.5 | 9.6 | 0.00 | 0.29 | 0.00 | 36 | 1006.1 |
| 20260507183052 | 63 | 323 | 2.6 | 11.3 | 0.00 | 0.29 | 0.00 | 39 | 1006.2 |
| 20260507181551 | 65 | 348 | 2.6 | 10.4 | 0.00 | 0.29 | 0.00 | 35 | 1006.4 |
| 20260507180057 | 65 | 312 | 3.5 | 11.3 | 0.00 | 0.29 | 0.00 | 36 | 1006.1 |
| 20260507174605 | 65 | 319 | 2.6 | 7.8 | 0.00 | 0.34 | 0.00 | 36 | 1005.9 |
| 20260507173052 | 64 | 360 | 1.7 | 7.8 | 0.00 | 0.34 | 0.00 | 37 | 1006.1 |
| 20260507171603 | 63 | 294 | 1.7 | 7.0 | 0.00 | 0.34 | 0.00 | 35 | 1006.2 |
| 20260507170050 | 64 | 236 | 0.9 | 7.0 | 0.00 | 0.34 | 0.00 | 41 | 1006.4 |
| 20260507164549 | 62 | 174 | 0.9 | 8.7 | 0.00 | 0.34 | 0.00 | 42 | 1006.6 |
| 20260507163053 | 60 | 307 | 0.9 | 6.1 | 0.00 | 0.34 | 0.00 | 47 | 1006.8 |
| 20260507161559 | 60 | 341 | 2.6 | 6.1 | 0.00 | 0.34 | 0.00 | 51 | 1006.8 |
| 20260507160054 | 60 | 355 | 1.7 | 11.3 | 0.00 | 0.34 | 0.00 | 53 | 1007.0 |
| 20260507154550 | 58 | 348 | 0.9 | 6.1 | 0.00 | 0.34 | 0.00 | 58 | 1007.2 |
| 20260507153101 | 59 | 330 | 0.9 | 7.0 | 0.00 | 0.34 | 0.00 | 57 | 1007.4 |
| 20260507151548 | 58 | 0 | 0.9 | 5.2 | 0.00 | 0.34 | 0.00 | 56 | 1007.6 |
| 20260507150048 | 59 | 197 | 0.9 | 5.2 | 0.00 | 0.34 | 0.00 | 57 | 1007.7 |
| 20260507144553 | 60 | 315 | 0.9 | 7.0 | 0.00 | 0.34 | 0.00 | 56 | 1007.6 |
| 20260507143051 | 60 | 0 | 0.9 | 5.2 | 0.00 | 0.34 | 0.00 | 60 | 1007.5 |
| 20260507141552 | 59 | 349 | 0.9 | 4.3 | 0.00 | 0.34 | 0.00 | 63 | 1007.5 |
| 20260507140101 | 58 | 348 | 0.9 | 7.8 | 0.00 | 0.34 | 0.00 | 63 | 1007.5 |
| 20260507134553 | 57 | 326 | 2.6 | 7.8 | 0.00 | 0.34 | 0.00 | 63 | 1007.5 |
| 20260507133058 | 55 | 309 | 2.6 | 7.8 | 0.00 | 0.34 | 0.00 | 65 | 1007.6 |
| 20260507131550 | 53 | 343 | 1.7 | 7.8 | 0.00 | 0.34 | 0.00 | 67 | 1007.7 |
| 20260507130105 | 52 | 15 | 0.0 | 7.0 | 0.00 | 0.34 | 0.00 | 70 | 1007.7 |
| 20260507124618 | 51 | 360 | 1.7 | 5.2 | 0.00 | 0.34 | 0.00 | 72 | 1007.8 |
| 20260507123046 | 50 | 0 | 0.0 | 7.8 | 0.00 | 0.34 | 0.00 | 77 | 1008.0 |
| 20260507121553 | 49 | 313 | 2.6 | 8.7 | 0.00 | 0.34 | 0.00 | 77 | 1008.1 |
| 20260507120055 | 48 | 0 | 0.9 | 7.0 | 0.00 | 0.34 | 0.00 | 82 | 1008.1 |
| 20260507114610 | 47 | 0 | 0.0 | 2.6 | 0.00 | 0.34 | 0.00 | 87 | 1007.9 |
| 20260507113053 | 46 | 0 | 0.0 | 0.9 | 0.00 | 0.34 | 0.00 | 89 | 1008.0 |
| 20260507111550 | 46 | 0 | 0.0 | 0.9 | 0.00 | 0.34 | 0.00 | 88 | 1007.7 |
| 20260507110051 | 46 | 0 | 0.9 | 3.5 | 0.00 | 0.34 | 0.00 | 89 | 1007.6 |
| 20260507104552 | 46 | 0 | 0.0 | 0.9 | 0.00 | 0.34 | 0.00 | 91 | 1007.7 |
| 20260507103052 | 46 | 0 | 0.0 | 0.9 | 0.00 | 0.34 | 0.00 | 90 | 1007.8 |
| 20260507101551 | 46 | 0 | 0.0 | 2.6 | 0.00 | 0.34 | 0.00 | 90 | 1007.5 |
| 20260507100050 | 46 | 0 | 0.0 | 2.6 | 0.00 | 0.34 | 0.00 | 90 | 1007.8 |
| 20260507094550 | 46 | 0 | 0.0 | 0.9 | 0.00 | 0.34 | 0.00 | 92 | 1007.8 |
| 20260507093051 | 46 | 0 | 0.0 | 0.9 | 0.00 | 0.34 | 0.00 | 91 | 1007.7 |
| 20260507091545 | 47 | 0 | 0.0 | 0.0 | 0.00 | 0.34 | 0.00 | 92 | 1007.6 |
| 20260507090043 | 47 | 0 | 0.0 | 0.0 | 0.00 | 0.34 | 0.00 | 91 | 1007.6 |
| 20260507084547 | 47 | 0 | 0.0 | 5.2 | 0.00 | 0.34 | 0.00 | 90 | 1007.2 |
| 20260507083050 | 47 | 138 | 0.0 | 1.7 | 0.00 | 0.34 | 0.00 | 90 | 1007.2 |
| 20260507081547 | 47 | 0 | 0.0 | 1.7 | 0.00 | 0.34 | 0.00 | 90 | 1006.7 |
| 20260507080100 | 47 | 0 | 0.0 | 2.6 | 0.00 | 0.34 | 0.00 | 90 | 1007.3 |
| 20260507074604 | 47 | 340 | 0.0 | 3.5 | 0.00 | 0.34 | 0.00 | 90 | 1007.0 |
| 20260507073048 | 48 | 0 | 0.0 | 7.0 | 0.00 | 0.34 | 0.00 | 91 | 1006.9 |
| 20260507071550 | 48 | 227 | 0.0 | 4.3 | 0.00 | 0.34 | 0.00 | 91 | 1006.8 |
| 20260507070103 | 48 | 0 | 0.9 | 4.3 | 0.00 | 0.34 | 0.00 | 92 | 1006.4 |
| 20260507064559 | 48 | 0 | 0.0 | 4.3 | 0.00 | 0.34 | 0.00 | 92 | 1006.8 |
| 20260507063056 | 48 | 0 | 0.9 | 5.2 | 0.00 | 0.34 | 0.00 | 93 | 1006.5 |
| 20260507061546 | 48 | 0 | 0.0 | 2.6 | 0.00 | 0.34 | 0.00 | 93 | 1006.6 |
| 20260507060049 | 49 | 246 | 0.0 | 3.5 | 0.00 | 0.34 | 0.00 | 93 | 1006.7 |
| 20260507054550 | 49 | 0 | 0.0 | 0.9 | 0.00 | 0.34 | 0.00 | 94 | 1006.5 |
| 20260507053050 | 49 | 0 | 0.0 | 2.6 | 0.00 | 0.34 | 0.00 | 94 | 1006.5 |
| 20260507051544 | 50 | 0 | 0.0 | 0.9 | 0.00 | 0.34 | 0.00 | 94 | 1006.5 |
| 20260507050051 | 50 | 0 | 0.0 | 3.5 | 0.00 | 0.34 | 0.00 | 94 | 1006.3 |
| 20260507044552 | 51 | 0 | 0.0 | 3.5 | 0.00 | 0.34 | 0.00 | 94 | 1006.6 |
| 20260507043048 | 51 | 247 | 0.0 | 1.7 | 0.00 | 0.34 | 0.00 | 94 | 1006.2 |
| 20260507041546 | 52 | 0 | 0.0 | 1.7 | 0.01 | 0.34 | 0.00 | 94 | 1006.4 |
| 20260507040047 | 52 | 0 | 0.0 | 2.6 | 0.01 | 0.34 | 0.00 | 94 | 1006.1 |
| 20260507034542 | 53 | 0 | 0.0 | 6.1 | 0.01 | 0.34 | 0.34 | 94 | 1006.0 |
| 20260507033046 | 54 | 0 | 0.0 | 3.5 | 0.01 | 0.34 | 0.34 | 93 | 1006.0 |
| 20260507031550 | 55 | 0 | 0.0 | 5.2 | 0.01 | 0.33 | 0.33 | 94 | 1006.0 |
| 20260507030047 | 56 | 249 | 0.0 | 6.1 | 0.02 | 0.33 | 0.33 | 95 | 1005.7 |
| 20260507024546 | 57 | 30 | 0.9 | 4.3 | 0.03 | 0.33 | 0.33 | 96 | 1005.3 |
| 20260507023044 | 59 | 202 | 0.0 | 2.6 | 0.03 | 0.33 | 0.33 | 96 | 1005.1 |
| 20260507021547 | 59 | 0 | 0.0 | 1.7 | 0.02 | 0.32 | 0.32 | 96 | 1004.7 |
| 20260507020045 | 59 | 0 | 0.0 | 0.0 | 0.01 | 0.31 | 0.31 | 96 | 1004.8 |
| 20260507014553 | 59 | 0 | 0.0 | 1.7 | 0.00 | 0.30 | 0.30 | 96 | 1004.9 |
| 20260507013106 | 59 | 0 | 0.0 | 0.0 | 0.00 | 0.30 | 0.30 | 96 | 1005.1 |
| 20260507011546 | 59 | 0 | 0.0 | 0.0 | 0.00 | 0.30 | 0.30 | 96 | 1005.1 |
| 20260507004548 | 59 | 0 | 0.0 | 0.9 | 0.00 | 0.30 | 0.30 | 96 | 1005.0 |
| 20260507003052 | 59 | 0 | 0.0 | 3.5 | 0.00 | 0.30 | 0.30 | 96 | 1005.0 |
| 20260507001555 | 59 | 0 | 0.0 | 2.6 | 0.00 | 0.30 | 0.30 | 95 | 1004.8 |
| 20260507000054 | 59 | 0 | 0.0 | 1.7 | 0.00 | 0.30 | 0.30 | 96 | 1004.8 |
| 20260506234554 | 59 | 0 | 0.0 | 2.6 | 0.00 | 0.30 | 0.30 | 96 | 1004.8 |
| 20260506233103 | 59 | 0 | 0.0 | 2.6 | 0.00 | 0.30 | 0.30 | 96 | 1004.9 |
| 20260506231546 | 59 | 0 | 0.0 | 1.7 | 0.00 | 0.30 | 0.30 | 95 | 1005.1 |
| 20260506230050 | 59 | 312 | 0.0 | 2.6 | 0.00 | 0.30 | 0.30 | 95 | 1005.0 |
| 20260506224546 | 59 | 0 | 0.0 | 1.7 | 0.00 | 0.30 | 0.30 | 95 | 1005.1 |
| 20260506223053 | 59 | 0 | 0.0 | 4.3 | 0.02 | 0.30 | 0.30 | 95 | 1005.2 |